STARLINK-4521 (53391 NORAD) Tracking and Keplerian Element Data

This shows tracking and keplerian element data for the satellite.

Feedback or suggestion? Click here.




ElementValue
Catalog53391
NameSTARLINK-4521
Epoch Orbit130
Epoch Day269.91667824
Epoch Year2022
RAAN19.4624
Inclination53.2176
Eccentricity0.0001791
Argument of Perigee45.709
Mean Anonmoly86.0547
Mean Motion15.08866773
Decay Rate-0.0006948
L11 53391U 22097D 22269.91667824 -.00069480 00000+0 -43866-2 0 9992
L22 53391 53.2176 19.4624 0001791 45.7090 86.0547 15.08866773 1301

Live tracking and technical data element details for STARLINK-4521 (NORAD 53391). STARLINK-4521 can be tracked NOW for your location showing map with azimuth and elevation plus other details from your city location.

Track the satellite on the map from your city or location and see movement details for azimuth, elevation, latitude, longitude, range, height, and movement on the map or in text.







IsCatalogInMostPopularTable: catalog: 53391, numindb: 3
Update: records affected: 1



GetName: 53391 STARLINK-4521

Hit Count: updated at: Fri, 30 Sep 2022 02:43:48 GMT